Theta_e
306 305 305 306 306 306 301 300 301 301 301 302 303 303 304 304 305 310 313 310 307 307 306 309 311 312 312 316 319 322 327 326 326 326 327 325 325 325 327 327 327 327 327 327 325
308 307 305 305 305 306 302 300 300 301 301 302 302 303 304 305 310 316 312 309 311 308 308 308 312 313 314 315 318 322 324 324 325 326 327 326 325 326 326 327 328 329 327 326 324
310 309 308 305 305 305 302 301 300 301 302 302 302 304 305 305 317 314 307 309 311 311 309 309 312 312 314 315 317 320 323 322 323 324 325 326 326 325 325 327 327 329 326 324 323
309 309 309 307 305 304 304 303 301 301 301 302 302 304 305 306 319 315 310 312 311 311 314 313 312 313 315 316 316 318 319 320 321 323 323 324 324 324 323 324 324 328 325 322 323
309 309 310 308 305 304 304 303 302 301 301 302 303 305 306 312 316 311 311 311 311 312 313 313 313 313 315 315 315 316 317 316 317 318 318 319 321 322 322 322 318 323 322 321 321
309 310 310 308 305 305 306 305 302 301 302 303 304 306 310 311 312 310 311 310 313 313 312 313 313 313 314 314 315 315 315 315 315 316 316 317 317 318 318 317 317 322 324 323 321
309 310 310 308 305 308 311 310 310 304 303 304 308 305 310 309 312 311 311 312 311 311 312 312 312 312 313 314 313 314 315 315 315 315 316 315 317 318 317 316 316 316 318 323 323
307 309 311 306 307 311 312 311 312 308 305 309 310 306 312 306 310 311 313 312 311 310 311 311 311 312 312 313 313 314 314 314 316 314 314 314 317 318 316 316 316 316 315 317 317
306 309 311 305 309 312 312 312 313 312 311 311 312 314 314 309 312 311 312 311 310 310 311 310 311 313 312 314 315 315 313 314 315 315 315 315 316 317 315 315 316 316 315 315 316
308 310 311 305 311 312 312 311 313 313 312 311 310 316 313 313 314 312 310 310 310 311 312 312 313 315 314 315 314 315 315 314 314 315 315 315 315 316 315 315 315 315 315 314 315
310 311 310 306 311 313 312 311 313 315 315 314 313 314 314 314 311 311 310 310 311 312 314 313 314 315 315 314 313 314 314 314 315 315 314 315 315 316 315 315 315 315 315 315 315
310 311 305 309 312 312 311 313 312 312 315 313 312 313 313 313 313 312 310 311 312 313 313 313 314 314 313 312 312 313 314 314 314 314 314 314 314 315 315 315 315 315 315 315 315
307 306 303 311 312 312 312 311 310 311 315 313 313 313 313 313 313 313 311 311 313 313 313 313 313 312 312 312 312 313 314 314 313 313 314 314 315 315 315 315 314 314 315 314 315
308 302 305 311 312 311 313 311 309 311 318 315 314 313 313 313 313 312 311 312 313 313 313 313 313 312 312 312 313 313 313 312 312 314 314 314 314 315 315 315 315 315 315 315 314
306 305 305 312 312 314 312 307 310 313 320 314 313 312 311 313 312 312 311 312 313 314 312 313 312 312 312 313 313 313 313 313 313 314 315 314 315 315 315 315 315 315 314 313 314
307 310 310 312 311 311 307 310 314 321 318 314 313 313 314 313 313 312 312 311 312 314 314 313 313 312 313 313 313 313 313 314 314 315 315 314 315 314 314 315 315 314 312 313 315
310 311 311 311 313 310 311 315 322 321 315 315 314 314 314 314 315 314 315 315 314 314 315 314 314 313 312 313 314 314 314 315 314 316 315 314 314 314 314 314 314 313 312 312 313
311 312 312 310 310 311 314 319 322 317 316 314 314 314 315 315 315 314 314 315 314 314 315 315 315 314 313 314 314 315 314 314 314 314 314 314 314 315 314 313 312 312 313 314 315
312 313 314 312 311 312 315 321 317 316 314 314 315 315 314 314 313 313 314 314 314 315 315 315 315 314 313 313 314 314 314 314 314 314 315 315 314 314 314 313 313 313 314 313 314
304 314 316 311 311 312 317 316 316 314 314 314 314 313 314 314 313 313 313 313 313 314 314 315 316 314 314 313 313 313 313 314 314 315 316 314 314 314 314 313 313 314 313 313 314
310 314 314 312 310 314 318 315 315 314 314 313 313 313 313 313 313 313 313 313 313 313 314 314 315 313 314 314 313 314 313 313 314 316 317 315 314 315 314 314 314 314 313 314 313
309 313 313 312 312 313 314 313 309 310 310 311 312 313 313 313 313 314 314 313 312 312 314 313 314 315 314 313 313 313 313 314 316 315 315 315 315 315 315 314 313 314 313 313 313
307 309 311 304 313 312 310 309 308 309 309 312 313 313 313 313 314 313 313 312 312 312 313 313 314 315 314 314 313 313 313 313 314 316 316 317 315 315 315 315 314 315 314 313 314
306 311 308 308 307 308 307 308 309 310 311 311 312 312 312 313 313 313 313 312 311 311 311 312 315 314 315 313 313 314 312 313 314 317 316 314 315 315 315 315 316 315 315 315 315
304 309 306 310 308 306 307 308 308 308 309 309 310 311 312 312 312 311 311 311 310 309 310 313 315 313 313 312 311 312 312 312 313 315 315 313 314 315 315 316 315 314 314 315 315
304 304 305 305 305 306 306 307 307 307 308 307 309 308 309 310 310 311 310 310 310 310 310 310 311 311 312 311 310 311 313 313 312 313 313 313 314 314 314 314 315 314 315 314 315
296 299 303 307 307 307 306 305 305 306 305 305 307 308 308 309 308 307 305 306 307 308 309 309 312 313 313 311 311 313 312 312 313 313 313 314 314 314 315 315 315 314 314 314 314
Wind_Speed
12 12 12 12 12 12 11 9 8 7 7 6 7 8 9 9 10 7 4 4 3 5 6 5 4 6 9 13 14 13 12 17 22 19 16 11 12 17 13 24 21 11 12 15 22
14 14 13 13 13 12 12 9 7 6 7 6 7 8 9 9 4 2 3 0 1 2 0 4 7 8 12 14 12 15 15 24 20 16 15 13 12 4 6 16 23 24 18 14 22
15 15 15 14 13 13 11 9 7 6 7 6 7 8 8 7 1 2 2 4 5 6 1 3 5 9 13 12 18 17 21 18 20 15 18 16 16 10 11 17 18 24 13 19 21
15 15 14 14 14 12 10 8 7 6 6 5 6 6 6 2 1 1 5 7 6 7 3 1 5 9 10 12 14 14 17 19 17 19 12 16 18 14 17 19 13 23 22 23 20
15 15 15 13 13 11 10 8 6 6 5 5 5 5 3 4 2 3 6 5 6 4 1 1 2 4 9 6 8 16 16 11 16 16 19 19 20 19 21 17 11 19 23 18 16
17 15 14 12 11 9 7 7 5 4 4 4 4 4 2 7 5 6 6 3 1 1 1 1 1 2 4 10 9 5 12 14 17 18 19 19 22 24 23 10 14 24 37 31 17
17 16 14 11 9 6 7 9 7 5 3 2 3 2 5 1 8 8 5 3 2 1 2 2 2 5 1 6 4 10 14 16 18 20 19 19 21 25 25 10 18 21 27 23 28
15 13 11 9 5 4 6 8 4 2 1 1 2 1 4 7 10 6 4 4 5 4 3 3 4 4 6 3 9 10 9 14 11 4 13 12 21 3 5 8 10 8 8 14 12
13 10 7 6 1 4 5 6 3 2 3 1 1 1 3 7 6 5 5 2 2 3 4 5 5 8 6 10 10 10 13 8 7 6 6 11 13 7 8 12 12 11 9 10 10
13 9 6 3 1 3 5 3 3 2 4 3 0 4 4 8 5 5 5 4 4 3 5 8 7 8 8 9 10 7 9 9 11 5 8 15 18 16 18 19 20 19 17 14 11
12 8 5 2 2 2 4 3 2 2 3 4 0 3 3 2 5 8 6 5 6 7 9 6 9 11 8 3 8 9 10 12 10 8 12 16 17 18 22 23 25 24 22 21 15
12 7 3 5 3 3 6 2 4 3 4 4 7 7 6 3 5 10 7 8 9 10 4 9 13 9 5 6 8 10 12 13 9 10 11 16 20 20 20 22 23 21 24 23 18
11 6 2 7 5 5 5 4 5 6 6 2 4 5 6 8 5 6 12 10 10 9 8 10 5 1 8 9 11 13 13 11 13 12 16 19 20 20 9 11 13 17 12 15 11
11 6 5 7 3 2 1 7 7 3 5 8 6 5 6 5 5 7 10 11 7 10 6 9 6 8 9 10 8 13 5 8 12 13 13 7 10 11 11 12 5 6 5 7 6
10 7 7 3 3 1 6 8 2 1 4 7 6 4 4 9 4 8 8 12 15 11 8 9 10 12 12 13 11 15 3 12 13 15 17 19 11 14 3 9 6 5 2 2 4
10 8 6 2 2 5 7 0 1 5 3 7 5 5 7 9 9 5 8 11 11 15 16 19 15 9 15 10 10 9 12 15 16 13 14 20 15 10 7 8 12 9 8 4 6
6 5 4 3 3 7 2 2 5 6 3 4 5 5 8 11 10 10 12 14 13 13 17 19 19 18 11 14 9 11 14 11 11 10 11 6 6 12 5 5 4 11 12 10 9
6 4 6 4 5 5 2 5 6 3 4 1 5 8 12 7 12 10 12 14 13 16 15 16 15 16 13 16 16 11 10 10 13 11 9 4 7 1 4 4 10 11 7 5 7
9 7 5 5 6 4 7 5 4 3 3 4 8 13 12 7 6 7 14 16 15 11 14 8 15 6 6 8 10 11 10 9 15 17 15 13 13 12 13 8 8 9 5 9 6
8 4 6 5 6 2 6 7 5 3 3 4 7 5 9 6 7 5 7 1 6 10 11 12 13 16 9 6 15 15 10 7 9 8 14 10 11 8 11 3 4 7 12 13 14
3 4 5 4 6 6 6 5 6 6 6 7 9 12 12 13 12 13 7 6 7 6 9 11 10 13 7 13 16 9 13 11 11 12 10 12 4 8 3 7 10 10 13 13 22
3 3 4 4 6 3 6 2 4 11 11 11 8 13 17 16 15 15 14 11 2 8 12 12 7 13 17 13 11 14 18 16 11 15 14 13 14 5 3 6 8 16 23 26 22
9 3 3 3 3 4 4 11 8 10 8 5 6 6 4 10 8 11 11 6 9 11 6 5 9 11 14 13 4 11 17 16 16 16 17 13 12 2 9 15 20 20 21 21 22
6 3 1 2 2 6 8 7 5 4 11 11 11 10 13 14 14 10 10 5 6 10 5 2 15 17 14 16 5 7 10 12 17 12 15 20 26 22 21 20 17 20 20 20 21
5 2 2 4 2 8 4 7 11 7 5 7 6 10 12 10 11 16 16 13 10 11 13 10 18 18 21 21 20 24 23 23 22 24 24 26 28 24 23 21 21 23 23 20 21
5 6 4 10 7 7 4 7 10 8 5 8 11 14 13 16 16 20 18 18 19 17 16 16 22 22 25 21 19 20 23 25 27 28 29 29 30 25 28 27 18 21 19 22 23
8 5 4 6 3 5 5 6 7 8 8 9 10 13 14 15 17 21 24 25 20 17 15 13 10 12 17 17 11 14 23 25 26 25 23 24 24 18 14 16 15 20 25 27 26
Wind_Direction
356 352 350 348 344 339 328 313 311 313 306 303 309 313 317 320 321 327 314 253 259 290 244 247 243 218 211 218 217 226 239 244 239 229 244 239 227 230 235 235 246 263 288 305 322
351 348 345 342 339 335 327 312 302 302 299 300 311 320 328 332 345 309 313 142 117 44 71 216 211 205 211 217 211 218 233 242 248 252 250 233 220 227 229 215 241 258 275 296 321
349 347 341 337 334 331 327 318 297 287 291 300 312 325 335 340 262 90 44 103 75 62 75 193 195 211 230 222 219 226 245 259 250 264 257 257 224 224 244 246 251 236 286 299 318
340 340 339 334 331 329 326 317 293 274 283 294 304 324 333 340 336 162 115 102 80 75 57 119 205 214 232 220 228 244 245 259 264 248 245 248 249 240 243 260 330 237 277 290 299
335 336 336 332 332 330 328 323 302 272 269 279 292 318 333 249 185 172 137 102 73 73 61 49 224 247 240 253 235 243 256 244 250 254 255 261 251 253 257 259 289 231 262 276 299
331 332 333 331 332 331 337 335 319 278 260 268 289 310 293 241 194 168 145 108 140 148 277 251 299 277 279 254 251 334 267 257 253 254 254 256 261 255 251 250 243 241 247 258 272
329 330 333 332 336 344 346 341 322 298 273 265 306 304 245 259 171 167 171 204 202 159 264 235 250 251 274 242 252 266 265 251 245 248 250 252 259 251 253 238 245 253 271 268 266
330 330 332 330 333 345 336 346 344 317 285 302 311 54 250 199 185 191 206 237 244 250 250 265 242 268 256 269 240 255 255 261 223 257 236 237 258 200 157 229 239 252 281 258 274
338 334 335 326 328 357 5 12 35 85 75 352 25 220 145 188 183 192 190 211 191 237 236 251 247 269 227 241 237 210 262 216 253 207 273 231 269 209 221 257 260 259 274 272 248
346 343 339 321 155 353 355 0 21 330 323 30 232 233 172 157 193 208 204 218 244 233 216 221 231 237 220 233 255 253 238 220 256 226 258 269 258 256 257 257 260 261 260 262 260
349 347 343 166 152 44 11 7 321 198 257 287 315 297 182 221 209 200 211 220 225 234 248 191 262 229 252 263 307 283 270 268 273 276 281 275 275 273 269 264 261 254 248 251 245
352 348 358 150 138 80 53 34 30 318 295 251 242 250 237 228 220 214 206 217 211 249 215 238 241 263 254 250 258 252 261 264 279 263 281 283 277 280 269 263 258 261 251 240 235
360 5 109 153 129 107 85 44 355 344 262 161 209 214 196 203 237 231 208 222 239 245 237 272 8 178 216 239 252 247 263 282 289 302 277 269 276 254 246 250 248 259 260 236 221
11 35 118 140 109 125 43 333 333 326 264 144 184 166 188 220 237 214 214 220 223 259 240 262 181 220 235 257 261 273 267 278 280 283 285 321 287 282 267 248 248 169 176 196 219
27 62 116 114 131 350 295 319 319 280 265 135 148 154 197 229 359 182 214 223 252 228 231 248 211 218 248 269 288 269 272 278 282 282 284 269 257 271 222 204 187 184 103 289 282
50 68 85 77 5 316 315 315 177 231 251 171 175 202 229 214 238 251 229 227 263 264 240 256 262 256 264 286 269 275 266 262 259 263 262 254 248 264 188 227 167 187 328 249 274
37 37 11 356 294 321 335 193 233 251 109 181 222 223 261 261 252 244 251 235 239 239 242 238 237 237 251 250 212 241 258 272 263 214 253 90 272 258 260 253 234 307 293 263 272
301 323 341 333 325 330 247 227 256 63 242 89 263 263 262 271 248 259 258 254 229 259 266 273 260 207 209 236 265 250 255 273 282 273 278 240 260 153 42 257 298 285 289 264 233
292 270 291 304 330 333 244 229 305 346 0 286 287 265 261 229 260 251 263 264 265 212 245 266 254 206 252 240 239 264 230 286 282 268 267 258 254 240 220 222 223 240 227 272 267
316 252 245 278 327 283 246 267 284 253 278 255 276 259 269 234 240 245 274 292 265 248 248 271 272 258 245 232 245 250 276 223 212 264 261 253 257 267 189 307 250 243 259 277 271
7 263 243 300 318 238 252 281 289 269 247 257 262 263 269 275 278 274 263 271 241 234 243 267 251 268 205 235 256 187 228 228 279 256 261 279 273 80 240 283 297 292 289 277 297
350 250 262 321 267 246 261 310 341 271 260 262 266 266 270 271 271 267 261 257 199 284 242 240 275 265 263 273 264 258 273 242 232 236 227 263 277 354 13 330 296 271 278 284 286
329 294 298 332 274 265 283 277 269 274 263 252 259 243 291 270 274 256 269 298 294 256 257 236 242 262 252 210 232 242 244 248 248 251 259 269 255 233 228 302 302 298 293 281 279
330 308 248 39 23 317 323 286 262 254 272 264 271 273 268 263 254 265 267 249 266 268 39 283 262 257 268 290 274 248 263 243 239 234 242 254 276 273 284 297 298 301 294 280 277
354 18 339 299 284 314 278 287 296 293 239 270 262 258 281 276 268 269 272 271 273 257 246 228 259 260 266 272 273 276 269 264 237 235 253 274 271 276 281 290 297 294 293 285 273
355 338 296 287 289 278 253 287 297 301 262 278 267 293 289 273 276 287 296 283 275 273 268 257 262 264 267 267 262 268 267 263 256 256 259 262 268 276 277 274 279 299 292 290 285
348 308 285 283 272 286 295 299 298 303 279 269 293 293 280 284 295 288 284 278 268 270 257 250 253 263 259 261 273 258 253 249 251 252 254 258 263 273 296 289 295 300 294 290 289